User: anonymous   Login
Location: Overspoor
(51.4747°N, 5.6641°E)
Time: 03:30:58
(UTC+02:00)
Language:

DX 1 - Orbit

View from above orbital plane
View from above orbital plane
View from above satellite
View from above satellite

Ground track
Ground track

The orbit data is extracted from the following two-line orbital elements,

1 40071U 14037C   22176.50697210  .00000700  00000-0  95926-4 0  9997
2 40071  98.4083  45.6460 0007245 296.2670  63.7773 14.81881502430537
Epoch (UTC): 25 June 2022 12:10:02
Eccentricity: 0.0007245
inclination: 98.4083°
perigee height: 618 km
apogee height: 628 km
right ascension of ascending node: 45.6460°
argument of perigee: 296.2670°
revolutions per day: 14.81881502
mean anomaly at epoch: 63.7773°
orbit number at epoch: 43053

The dashed part of the orbit path shows where the satellite is in the earth's shadow,  

DLR